Year,Month,Day,Hour,Minute,Value (Times are PST for temperature in C)
2010,04,11,00,00,8.90
2010,04,11,00,01,8.90
2010,04,11,00,02,8.90
2010,04,11,00,03,8.90
2010,04,11,00,04,8.90
2010,04,11,00,05,8.90
2010,04,11,00,06,8.90
2010,04,11,00,07,8.90
2010,04,11,00,08,8.90
2010,04,11,00,09,8.90
2010,04,11,00,10,8.90
2010,04,11,00,11,8.90
2010,04,11,00,12,8.90
2010,04,11,00,13,8.90
2010,04,11,00,14,8.90
2010,04,11,00,15,8.80
2010,04,11,00,16,8.80
2010,04,11,00,17,8.80
2010,04,11,00,18,8.70
2010,04,11,00,19,8.70
2010,04,11,00,20,8.70
2010,04,11,00,21,8.70
2010,04,11,00,22,8.70
2010,04,11,00,23,8.70
2010,04,11,00,24,8.70
2010,04,11,00,25,8.80
2010,04,11,00,26,8.80
2010,04,11,00,27,8.80
2010,04,11,00,28,8.90
2010,04,11,00,29,8.90
2010,04,11,00,30,8.90
2010,04,11,00,31,8.90
2010,04,11,00,32,8.90
2010,04,11,00,33,8.90
2010,04,11,00,34,8.90
2010,04,11,00,35,8.90
2010,04,11,00,36,8.90
2010,04,11,00,37,8.90
2010,04,11,00,38,8.90
2010,04,11,00,39,8.80
2010,04,11,00,40,8.80
2010,04,11,00,41,8.80
2010,04,11,00,42,8.80
2010,04,11,00,43,8.80
2010,04,11,00,44,8.90
2010,04,11,00,45,8.90
2010,04,11,00,46,8.90
2010,04,11,00,47,8.90
2010,04,11,00,48,8.90
2010,04,11,00,49,8.90
2010,04,11,00,50,8.80
2010,04,11,00,51,8.80
2010,04,11,00,52,8.70
2010,04,11,00,53,8.70
2010,04,11,00,54,8.60
2010,04,11,00,55,8.60
2010,04,11,00,56,8.60
2010,04,11,00,57,8.60
2010,04,11,00,58,8.60
2010,04,11,00,59,8.70
2010,04,11,01,00,8.70
2010,04,11,01,01,8.70
2010,04,11,01,02,8.70
2010,04,11,01,03,8.70
2010,04,11,01,04,8.70
2010,04,11,01,05,8.60
2010,04,11,01,06,8.60
2010,04,11,01,07,8.60
2010,04,11,01,08,8.60
2010,04,11,01,09,8.50
2010,04,11,01,10,8.50
2010,04,11,01,11,8.50
2010,04,11,01,12,8.50
2010,04,11,01,13,8.50
2010,04,11,01,14,8.60
2010,04,11,01,15,8.60
2010,04,11,01,16,8.60
2010,04,11,01,17,8.60
2010,04,11,01,18,8.60
2010,04,11,01,19,8.70
2010,04,11,01,20,8.70
2010,04,11,01,21,8.70
2010,04,11,01,22,8.70
2010,04,11,01,23,8.70
2010,04,11,01,24,8.60
2010,04,11,01,25,8.60
2010,04,11,01,26,8.60
2010,04,11,01,27,8.60
2010,04,11,01,28,8.60
2010,04,11,01,29,8.60
2010,04,11,01,30,8.60
2010,04,11,01,31,8.70
2010,04,11,01,32,8.70
2010,04,11,01,33,8.70
2010,04,11,01,34,8.70
2010,04,11,01,35,8.60
2010,04,11,01,36,8.60
2010,04,11,01,37,8.50
2010,04,11,01,38,8.40
2010,04,11,01,39,8.30
2010,04,11,01,40,8.20
2010,04,11,01,41,8.10
2010,04,11,01,42,8.00
2010,04,11,01,43,7.90
2010,04,11,01,44,7.80
2010,04,11,01,45,7.50
2010,04,11,01,46,7.30
2010,04,11,01,47,7.20
2010,04,11,01,48,7.10
2010,04,11,01,49,7.00
2010,04,11,01,50,6.90
2010,04,11,01,51,6.80
2010,04,11,01,52,6.80
2010,04,11,01,53,6.80
2010,04,11,01,54,6.70
2010,04,11,01,55,6.70
2010,04,11,01,56,6.70
2010,04,11,01,57,6.60
2010,04,11,01,58,6.60
2010,04,11,01,59,6.60
2010,04,11,02,00,6.50
2010,04,11,02,01,6.50
2010,04,11,02,02,6.40
2010,04,11,02,03,6.40
2010,04,11,02,04,6.30
2010,04,11,02,05,6.30
2010,04,11,02,06,6.30
2010,04,11,02,07,6.20
2010,04,11,02,08,6.20
2010,04,11,02,09,6.20
2010,04,11,02,10,6.10
2010,04,11,02,11,6.10
2010,04,11,02,12,6.00
2010,04,11,02,13,6.00
2010,04,11,02,14,5.90
2010,04,11,02,15,5.80
2010,04,11,02,16,5.80
2010,04,11,02,17,5.70
2010,04,11,02,18,5.70
2010,04,11,02,19,5.70
2010,04,11,02,20,5.60
2010,04,11,02,21,5.60
2010,04,11,02,22,5.60
2010,04,11,02,23,5.60
2010,04,11,02,24,5.60
2010,04,11,02,25,5.60
2010,04,11,02,26,5.60
2010,04,11,02,27,5.60
2010,04,11,02,28,5.60
2010,04,11,02,29,5.60
2010,04,11,02,30,5.50
2010,04,11,02,31,5.50
2010,04,11,02,32,5.50
2010,04,11,02,33,5.40
2010,04,11,02,34,5.50
2010,04,11,02,35,5.50
2010,04,11,02,36,5.50
2010,04,11,02,37,5.60
2010,04,11,02,38,5.60
2010,04,11,02,39,5.60
2010,04,11,02,40,5.60
2010,04,11,02,41,5.70
2010,04,11,02,42,5.70
2010,04,11,02,43,5.70
2010,04,11,02,44,5.70
2010,04,11,02,45,5.70
2010,04,11,02,46,5.70
2010,04,11,02,47,5.60
2010,04,11,02,48,5.60
2010,04,11,02,49,5.60
2010,04,11,02,50,5.60
2010,04,11,02,51,5.60
2010,04,11,02,52,5.60
2010,04,11,02,53,5.70
2010,04,11,02,54,5.70
2010,04,11,02,55,5.70
2010,04,11,02,56,5.80
2010,04,11,02,57,5.80
2010,04,11,02,58,5.80
2010,04,11,02,59,5.80
2010,04,11,03,00,5.80
2010,04,11,03,01,5.80
2010,04,11,03,02,5.70
2010,04,11,03,03,5.70
2010,04,11,03,04,5.70
2010,04,11,03,05,5.60
2010,04,11,03,06,5.60
2010,04,11,03,07,5.60
2010,04,11,03,08,5.60
2010,04,11,03,09,5.60
2010,04,11,03,10,5.60
2010,04,11,03,11,5.60
2010,04,11,03,12,5.70
2010,04,11,03,13,5.70
2010,04,11,03,14,5.70
2010,04,11,03,15,5.70
2010,04,11,03,16,5.80
2010,04,11,03,17,5.80
2010,04,11,03,18,5.80
2010,04,11,03,19,5.80
2010,04,11,03,20,5.70
2010,04,11,03,21,5.70
2010,04,11,03,22,5.70
2010,04,11,03,23,5.70
2010,04,11,03,24,5.70
2010,04,11,03,25,5.80
2010,04,11,03,26,5.80
2010,04,11,03,27,5.80
2010,04,11,03,28,5.80
2010,04,11,03,29,5.80
2010,04,11,03,30,5.80
2010,04,11,03,31,5.80
2010,04,11,03,32,5.80
2010,04,11,03,33,5.80
2010,04,11,03,34,5.80
2010,04,11,03,35,5.80
2010,04,11,03,36,5.80
2010,04,11,03,37,5.80
2010,04,11,03,38,5.90
2010,04,11,03,39,5.90
2010,04,11,03,40,5.90
2010,04,11,03,41,6.00
2010,04,11,03,42,6.00
2010,04,11,03,43,6.00
2010,04,11,03,44,6.00
2010,04,11,03,45,6.00
2010,04,11,03,46,6.00
2010,04,11,03,47,6.00
2010,04,11,03,48,5.90
2010,04,11,03,49,5.90
2010,04,11,03,50,5.90
2010,04,11,03,51,5.90
2010,04,11,03,52,5.90
2010,04,11,03,53,5.90
2010,04,11,03,54,5.80
2010,04,11,03,55,5.80
2010,04,11,03,56,5.80
2010,04,11,03,57,5.80
2010,04,11,03,58,5.80
2010,04,11,03,59,5.70
2010,04,11,04,00,5.70
2010,04,11,04,01,5.70
2010,04,11,04,02,5.70
2010,04,11,04,03,5.70
2010,04,11,04,04,5.70
2010,04,11,04,05,5.70
2010,04,11,04,06,5.70
2010,04,11,04,07,5.70
2010,04,11,04,08,5.70
2010,04,11,04,09,5.80
2010,04,11,04,10,5.80
2010,04,11,04,11,5.80
2010,04,11,04,12,5.80
2010,04,11,04,13,5.80
2010,04,11,04,14,5.80
2010,04,11,04,15,5.80
2010,04,11,04,16,5.80
2010,04,11,04,17,5.80
2010,04,11,04,18,5.70
2010,04,11,04,19,5.70
2010,04,11,04,20,5.70
2010,04,11,04,21,5.70
2010,04,11,04,22,5.70
2010,04,11,04,23,5.80
2010,04,11,04,24,5.80
2010,04,11,04,25,5.90
2010,04,11,04,26,5.90
2010,04,11,04,27,5.90
2010,04,11,04,28,5.90
2010,04,11,04,29,5.90
2010,04,11,04,30,5.90
2010,04,11,04,31,5.90
2010,04,11,04,32,5.80
2010,04,11,04,33,5.80
2010,04,11,04,34,5.80
2010,04,11,04,35,5.80
2010,04,11,04,36,5.80
2010,04,11,04,37,5.70
2010,04,11,04,38,5.70
2010,04,11,04,39,5.70
2010,04,11,04,40,5.70
2010,04,11,04,41,5.70
2010,04,11,04,42,5.70
2010,04,11,04,43,5.70
2010,04,11,04,44,5.70
2010,04,11,04,45,5.70
2010,04,11,04,46,5.80
2010,04,11,04,47,5.80
2010,04,11,04,48,5.90
2010,04,11,04,49,5.90
2010,04,11,04,50,5.90
2010,04,11,04,51,5.90
2010,04,11,04,52,5.80
2010,04,11,04,53,5.80
2010,04,11,04,54,5.80
2010,04,11,04,55,5.80
2010,04,11,04,56,5.80
2010,04,11,04,57,5.80
2010,04,11,04,58,5.80
2010,04,11,04,59,5.80
2010,04,11,05,00,5.80
2010,04,11,05,01,5.80
2010,04,11,05,02,5.80
2010,04,11,05,03,5.80
2010,04,11,05,04,5.80
2010,04,11,05,05,5.80
2010,04,11,05,06,5.80
2010,04,11,05,07,5.80
2010,04,11,05,08,5.80
2010,04,11,05,09,5.80
2010,04,11,05,10,5.80
2010,04,11,05,11,5.80
2010,04,11,05,12,5.80
2010,04,11,05,13,5.80
2010,04,11,05,14,5.80
2010,04,11,05,15,5.80
2010,04,11,05,16,5.80
2010,04,11,05,17,5.80
2010,04,11,05,18,5.80
2010,04,11,05,19,5.80
2010,04,11,05,20,5.80
2010,04,11,05,21,5.80
2010,04,11,05,22,5.80
2010,04,11,05,23,5.80
2010,04,11,05,24,5.80
2010,04,11,05,25,5.80
2010,04,11,05,26,5.80
2010,04,11,05,27,5.70
2010,04,11,05,28,5.70
2010,04,11,05,29,5.70
2010,04,11,05,30,5.70
2010,04,11,05,31,5.60
2010,04,11,05,32,5.60
2010,04,11,05,33,5.60
2010,04,11,05,34,5.50
2010,04,11,05,35,5.50
2010,04,11,05,36,5.40
2010,04,11,05,37,5.40
2010,04,11,05,38,5.40
2010,04,11,05,39,5.30
2010,04,11,05,40,5.30
2010,04,11,05,41,5.30
2010,04,11,05,42,5.30
2010,04,11,05,43,5.30
2010,04,11,05,44,5.30
2010,04,11,05,45,5.30
2010,04,11,05,46,5.30
2010,04,11,05,47,5.30
2010,04,11,05,48,5.30
2010,04,11,05,49,5.20
2010,04,11,05,50,5.20
2010,04,11,05,51,5.10
2010,04,11,05,52,5.10
2010,04,11,05,53,5.00
2010,04,11,05,54,4.90
2010,04,11,05,55,4.90
2010,04,11,05,56,4.90
2010,04,11,05,57,4.90
2010,04,11,05,58,4.90
2010,04,11,05,59,4.80
2010,04,11,06,00,4.80
2010,04,11,06,01,4.80
2010,04,11,06,02,4.80
2010,04,11,06,03,4.80
2010,04,11,06,04,4.80
2010,04,11,06,05,4.80
2010,04,11,06,06,4.80
2010,04,11,06,07,4.80
2010,04,11,06,08,4.80
2010,04,11,06,09,4.70
2010,04,11,06,10,4.70
2010,04,11,06,11,4.70
2010,04,11,06,12,4.70
2010,04,11,06,13,4.70
2010,04,11,06,14,4.70
2010,04,11,06,15,4.70
2010,04,11,06,16,4.70
2010,04,11,06,17,4.70
2010,04,11,06,18,4.60
2010,04,11,06,19,4.60
2010,04,11,06,20,4.50
2010,04,11,06,21,4.50
2010,04,11,06,22,4.40
2010,04,11,06,23,4.40
2010,04,11,06,24,4.40
2010,04,11,06,25,4.40
2010,04,11,06,26,4.40
2010,04,11,06,27,4.40
2010,04,11,06,28,4.40
2010,04,11,06,29,4.40
2010,04,11,06,30,4.50
2010,04,11,06,31,4.50
2010,04,11,06,32,4.50
2010,04,11,06,33,4.60
2010,04,11,06,34,4.60
2010,04,11,06,35,4.60
2010,04,11,06,36,4.60
2010,04,11,06,37,4.60
2010,04,11,06,38,4.60
2010,04,11,06,39,4.60
2010,04,11,06,40,4.60
2010,04,11,06,41,4.60
2010,04,11,06,42,4.70
2010,04,11,06,43,4.70
2010,04,11,06,44,4.80
2010,04,11,06,45,4.80
2010,04,11,06,46,4.80
2010,04,11,06,47,4.90
2010,04,11,06,48,4.90
2010,04,11,06,49,4.90
2010,04,11,06,50,4.90
2010,04,11,06,51,5.00
2010,04,11,06,52,5.00
2010,04,11,06,53,5.00
2010,04,11,06,54,5.10
2010,04,11,06,55,5.10
2010,04,11,06,56,5.10
2010,04,11,06,57,5.10
2010,04,11,06,58,5.20
2010,04,11,06,59,5.20
2010,04,11,07,00,5.20
2010,04,11,07,01,5.20
2010,04,11,07,02,5.30
2010,04,11,07,03,5.30
2010,04,11,07,04,5.30
2010,04,11,07,05,5.30
2010,04,11,07,06,5.30
2010,04,11,07,07,5.30
2010,04,11,07,08,5.30
2010,04,11,07,09,5.30
2010,04,11,07,10,5.30
2010,04,11,07,11,5.30
2010,04,11,07,12,5.30
2010,04,11,07,13,5.30
2010,04,11,07,14,5.30
2010,04,11,07,15,5.30
2010,04,11,07,16,5.30
2010,04,11,07,17,5.30
2010,04,11,07,18,5.30
2010,04,11,07,19,5.30
2010,04,11,07,20,5.30
2010,04,11,07,21,5.30
2010,04,11,07,22,5.30
2010,04,11,07,23,5.30
2010,04,11,07,24,5.30
2010,04,11,07,25,5.30
2010,04,11,07,26,5.30
2010,04,11,07,27,5.30
2010,04,11,07,28,5.30
2010,04,11,07,29,5.30
2010,04,11,07,30,5.30
2010,04,11,07,31,5.30
2010,04,11,07,32,5.40
2010,04,11,07,33,5.40
2010,04,11,07,34,5.40
2010,04,11,07,35,5.40
2010,04,11,07,36,5.40
2010,04,11,07,37,5.50
2010,04,11,07,38,5.50
2010,04,11,07,39,5.60
2010,04,11,07,40,5.60
2010,04,11,07,41,5.60
2010,04,11,07,42,5.70
2010,04,11,07,43,5.70
2010,04,11,07,44,5.70
2010,04,11,07,45,5.70
2010,04,11,07,46,5.80
2010,04,11,07,47,5.80
2010,04,11,07,48,5.80
2010,04,11,07,49,5.90
2010,04,11,07,50,5.90
2010,04,11,07,51,5.90
2010,04,11,07,52,6.00
2010,04,11,07,53,6.10
2010,04,11,07,54,6.10
2010,04,11,07,55,6.20
2010,04,11,07,56,6.20
2010,04,11,07,57,6.30
2010,04,11,07,58,6.30
2010,04,11,07,59,6.30
2010,04,11,08,00,6.40
2010,04,11,08,01,6.40
2010,04,11,08,02,6.40
2010,04,11,08,03,6.40
2010,04,11,08,04,6.40
2010,04,11,08,05,6.40
2010,04,11,08,06,6.40
2010,04,11,08,07,6.40
2010,04,11,08,08,6.50
2010,04,11,08,09,6.50
2010,04,11,08,10,6.50
2010,04,11,08,11,6.50
2010,04,11,08,12,6.60
2010,04,11,08,13,6.70
2010,04,11,08,14,6.70
2010,04,11,08,15,6.80
2010,04,11,08,16,6.80
2010,04,11,08,17,6.90
2010,04,11,08,18,6.90
2010,04,11,08,19,6.90
2010,04,11,08,20,7.00
2010,04,11,08,21,7.00
2010,04,11,08,22,7.00
2010,04,11,08,23,7.10
2010,04,11,08,24,7.20
2010,04,11,08,25,7.20
2010,04,11,08,26,7.20
2010,04,11,08,27,7.30
2010,04,11,08,28,7.40
2010,04,11,08,29,7.40
2010,04,11,08,30,7.50
2010,04,11,08,31,7.50
2010,04,11,08,32,7.60
2010,04,11,08,33,7.70
2010,04,11,08,34,7.80
2010,04,11,08,35,7.90
2010,04,11,08,36,8.10
2010,04,11,08,37,8.20
2010,04,11,08,38,8.20
2010,04,11,08,39,8.30
2010,04,11,08,40,8.30
2010,04,11,08,41,8.30
2010,04,11,08,42,8.30
2010,04,11,08,43,8.30
2010,04,11,08,44,8.20
2010,04,11,08,45,8.20
2010,04,11,08,46,8.20
2010,04,11,08,47,8.20
2010,04,11,08,48,8.30
2010,04,11,08,49,8.30
2010,04,11,08,50,8.40
2010,04,11,08,51,8.50
2010,04,11,08,52,8.50
2010,04,11,08,53,8.60
2010,04,11,08,54,8.70
2010,04,11,08,55,8.70
2010,04,11,08,56,8.80
2010,04,11,08,57,8.90
2010,04,11,08,58,8.90
2010,04,11,08,59,9.00
2010,04,11,09,00,9.00
2010,04,11,09,01,9.00
2010,04,11,09,02,9.00
2010,04,11,09,03,9.00
2010,04,11,09,04,9.10
2010,04,11,09,05,9.10
2010,04,11,09,06,9.10
2010,04,11,09,07,9.00
2010,04,11,09,08,9.00
2010,04,11,09,09,9.00
2010,04,11,09,10,9.10
2010,04,11,09,11,9.10
2010,04,11,09,12,9.10
2010,04,11,09,13,9.20
2010,04,11,09,14,9.20
2010,04,11,09,15,9.20
2010,04,11,09,16,9.20
2010,04,11,09,17,9.20
2010,04,11,09,18,9.20
2010,04,11,09,19,9.20
2010,04,11,09,20,9.10
2010,04,11,09,21,9.10
2010,04,11,09,22,9.10
2010,04,11,09,23,9.10
2010,04,11,09,24,9.00
2010,04,11,09,25,9.00
2010,04,11,09,26,8.90
2010,04,11,09,27,8.90
2010,04,11,09,28,8.90
2010,04,11,09,29,8.90
2010,04,11,09,30,8.90
2010,04,11,09,31,8.90
2010,04,11,09,32,9.00
2010,04,11,09,33,9.00
2010,04,11,09,34,9.10
2010,04,11,09,35,9.10
2010,04,11,09,36,9.10
2010,04,11,09,37,9.20
2010,04,11,09,38,9.20
2010,04,11,09,39,9.30
2010,04,11,09,40,9.30
2010,04,11,09,41,9.30
2010,04,11,09,42,9.40
2010,04,11,09,43,9.40
2010,04,11,09,44,9.50
2010,04,11,09,45,9.50
2010,04,11,09,46,9.50
2010,04,11,09,47,9.60
2010,04,11,09,48,9.60
2010,04,11,09,49,9.60
2010,04,11,09,50,9.60
2010,04,11,09,51,9.60
2010,04,11,09,52,9.60
2010,04,11,09,53,9.70
2010,04,11,09,54,9.80
2010,04,11,09,55,9.80
2010,04,11,09,56,9.80
2010,04,11,09,57,9.90
2010,04,11,09,58,9.90
2010,04,11,09,59,10.00
2010,04,11,10,00,10.00
2010,04,11,10,01,10.10
2010,04,11,10,02,10.10
2010,04,11,10,03,10.20
2010,04,11,10,04,10.20
2010,04,11,10,05,10.20
2010,04,11,10,06,10.30
2010,04,11,10,07,10.30
2010,04,11,10,08,10.20
2010,04,11,10,09,10.10
2010,04,11,10,10,10.10
2010,04,11,10,11,10.20
2010,04,11,10,12,10.20
2010,04,11,10,13,10.10
2010,04,11,10,14,10.10
2010,04,11,10,15,10.00
2010,04,11,10,16,9.90
2010,04,11,10,17,9.80
2010,04,11,10,18,9.80
2010,04,11,10,19,9.80
2010,04,11,10,20,9.80
2010,04,11,10,21,9.80
2010,04,11,10,22,9.90
2010,04,11,10,23,9.90
2010,04,11,10,24,10.00
2010,04,11,10,25,10.10
2010,04,11,10,26,10.20
2010,04,11,10,27,10.20
2010,04,11,10,28,10.30
2010,04,11,10,29,10.30
2010,04,11,10,30,10.40
2010,04,11,10,31,10.40
2010,04,11,10,32,10.40
2010,04,11,10,33,10.50
2010,04,11,10,34,10.60
2010,04,11,10,35,10.70
2010,04,11,10,36,10.70
2010,04,11,10,37,10.80
2010,04,11,10,38,10.80
2010,04,11,10,39,10.90
2010,04,11,10,40,10.80
2010,04,11,10,41,10.80
2010,04,11,10,42,10.70
2010,04,11,10,43,10.60
2010,04,11,10,44,10.50
2010,04,11,10,45,10.40
2010,04,11,10,46,10.40
2010,04,11,10,47,10.40
2010,04,11,10,48,10.40
2010,04,11,10,49,10.40
2010,04,11,10,50,10.40
2010,04,11,10,51,10.30
2010,04,11,10,52,10.30
2010,04,11,10,53,10.30
2010,04,11,10,54,10.30
2010,04,11,10,55,10.30
2010,04,11,10,56,10.30
2010,04,11,10,57,10.30
2010,04,11,10,58,10.40
2010,04,11,10,59,10.50
2010,04,11,11,00,10.60
2010,04,11,11,01,10.60
2010,04,11,11,02,10.60
2010,04,11,11,03,10.60
2010,04,11,11,04,10.50
2010,04,11,11,05,10.60
2010,04,11,11,06,10.70
2010,04,11,11,07,10.80
2010,04,11,11,08,10.80
2010,04,11,11,09,10.80
2010,04,11,11,10,10.80
2010,04,11,11,11,10.80
2010,04,11,11,12,10.90
2010,04,11,11,13,11.00
2010,04,11,11,14,11.10
2010,04,11,11,15,11.10
2010,04,11,11,16,11.10
2010,04,11,11,17,11.10
2010,04,11,11,18,11.00
2010,04,11,11,19,11.00
2010,04,11,11,20,10.90
2010,04,11,11,21,10.90
2010,04,11,11,22,11.00
2010,04,11,11,23,11.00
2010,04,11,11,24,11.10
2010,04,11,11,25,11.10
2010,04,11,11,26,11.00
2010,04,11,11,27,10.90
2010,04,11,11,28,10.90
2010,04,11,11,29,10.90
2010,04,11,11,30,10.90
2010,04,11,11,31,10.90
2010,04,11,11,32,11.00
2010,04,11,11,33,11.00
2010,04,11,11,34,11.10
2010,04,11,11,35,11.10
2010,04,11,11,36,11.20
2010,04,11,11,37,11.30
2010,04,11,11,38,11.40
2010,04,11,11,39,11.30
2010,04,11,11,40,11.30
2010,04,11,11,41,11.20
2010,04,11,11,42,11.20
2010,04,11,11,43,11.10
2010,04,11,11,44,11.00
2010,04,11,11,45,10.90
2010,04,11,11,46,10.90
2010,04,11,11,47,10.90
2010,04,11,11,48,11.00
2010,04,11,11,49,11.00
2010,04,11,11,50,11.00
2010,04,11,11,51,10.90
2010,04,11,11,52,11.00
2010,04,11,11,53,11.20
2010,04,11,11,54,11.30
2010,04,11,11,55,11.30
2010,04,11,11,56,11.30
2010,04,11,11,57,11.40
2010,04,11,11,58,11.50
2010,04,11,11,59,11.60
2010,04,11,12,00,11.60
2010,04,11,12,01,11.60
2010,04,11,12,02,11.70
2010,04,11,12,03,11.50
2010,04,11,12,04,11.40
2010,04,11,12,05,11.50
2010,04,11,12,06,11.60
2010,04,11,12,07,11.70
2010,04,11,12,08,11.60
2010,04,11,12,09,11.70
2010,04,11,12,10,11.60
2010,04,11,12,11,11.70
2010,04,11,12,12,11.70
2010,04,11,12,13,11.70
2010,04,11,12,14,11.70
2010,04,11,12,15,11.60
2010,04,11,12,16,11.50
2010,04,11,12,17,11.40
2010,04,11,12,18,11.50
2010,04,11,12,19,11.60
2010,04,11,12,20,11.70
2010,04,11,12,21,11.80
2010,04,11,12,22,11.80
2010,04,11,12,23,11.80
2010,04,11,12,24,11.70
2010,04,11,12,25,11.80
2010,04,11,12,26,11.80
2010,04,11,12,27,11.80
2010,04,11,12,28,11.80
2010,04,11,12,29,11.80
2010,04,11,12,30,11.70
2010,04,11,12,31,11.60
2010,04,11,12,32,11.60
2010,04,11,12,33,11.50
2010,04,11,12,34,11.40
2010,04,11,12,35,11.40
2010,04,11,12,36,11.40
2010,04,11,12,37,11.50
2010,04,11,12,38,11.60
2010,04,11,12,39,11.70
2010,04,11,12,40,11.70
2010,04,11,12,41,11.70
2010,04,11,12,42,11.80
2010,04,11,12,43,11.80
2010,04,11,12,44,11.80
2010,04,11,12,45,11.80
2010,04,11,12,46,11.80
2010,04,11,12,47,11.80
2010,04,11,12,48,11.70
2010,04,11,12,49,11.70
2010,04,11,12,50,11.60
2010,04,11,12,51,11.50
2010,04,11,12,52,11.50
2010,04,11,12,53,11.50
2010,04,11,12,54,11.50
2010,04,11,12,55,11.40
2010,04,11,12,56,11.40
2010,04,11,12,57,11.40
2010,04,11,12,58,11.40
2010,04,11,12,59,11.40
2010,04,11,13,00,11.50
2010,04,11,13,01,11.50
2010,04,11,13,02,11.60
2010,04,11,13,03,11.60
2010,04,11,13,04,11.60
2010,04,11,13,05,11.70
2010,04,11,13,06,11.60
2010,04,11,13,07,11.60
2010,04,11,13,08,11.60
2010,04,11,13,09,11.60
2010,04,11,13,10,11.70
2010,04,11,13,11,11.70
2010,04,11,13,12,11.70
2010,04,11,13,13,11.80
2010,04,11,13,14,11.90
2010,04,11,13,15,11.90
2010,04,11,13,16,12.00
2010,04,11,13,17,12.00
2010,04,11,13,18,12.10
2010,04,11,13,19,12.10
2010,04,11,13,20,12.00
2010,04,11,13,21,12.00
2010,04,11,13,22,11.80
2010,04,11,13,23,11.80
2010,04,11,13,24,11.80
2010,04,11,13,25,11.80
2010,04,11,13,26,11.90
2010,04,11,13,27,12.10
2010,04,11,13,28,12.20
2010,04,11,13,29,12.20
2010,04,11,13,30,12.20
2010,04,11,13,31,12.20
2010,04,11,13,32,12.20
2010,04,11,13,33,12.30
2010,04,11,13,34,12.20
2010,04,11,13,35,12.20
2010,04,11,13,36,12.10
2010,04,11,13,37,12.10
2010,04,11,13,38,12.10
2010,04,11,13,39,12.00
2010,04,11,13,40,12.10
2010,04,11,13,41,12.10
2010,04,11,13,42,12.10
2010,04,11,13,43,12.10
2010,04,11,13,44,12.10
2010,04,11,13,45,12.10
2010,04,11,13,46,12.00
2010,04,11,13,47,11.90
2010,04,11,13,48,11.90
2010,04,11,13,49,11.80
2010,04,11,13,50,11.90
2010,04,11,13,51,11.90
2010,04,11,13,52,11.90
2010,04,11,13,53,11.80
2010,04,11,13,54,11.80
2010,04,11,13,55,11.80
2010,04,11,13,56,11.90
2010,04,11,13,57,11.90
2010,04,11,13,58,11.90
2010,04,11,13,59,11.90
2010,04,11,14,00,12.00
2010,04,11,14,01,12.10
2010,04,11,14,02,12.20
2010,04,11,14,03,12.20
2010,04,11,14,04,12.20
2010,04,11,14,05,12.20
2010,04,11,14,06,12.30
2010,04,11,14,07,12.20
2010,04,11,14,08,12.20
2010,04,11,14,09,12.20
2010,04,11,14,10,12.20
2010,04,11,14,11,12.20
2010,04,11,14,12,12.10
2010,04,11,14,13,12.10
2010,04,11,14,14,12.00
2010,04,11,14,15,11.90
2010,04,11,14,16,11.90
2010,04,11,14,17,11.90
2010,04,11,14,18,12.00
2010,04,11,14,19,12.00
2010,04,11,14,20,12.00
2010,04,11,14,21,12.00
2010,04,11,14,22,12.00
2010,04,11,14,23,12.00
2010,04,11,14,24,12.10
2010,04,11,14,25,12.00
2010,04,11,14,26,12.00
2010,04,11,14,27,12.10
2010,04,11,14,28,12.20
2010,04,11,14,29,12.30
2010,04,11,14,30,12.30
2010,04,11,14,31,12.30
2010,04,11,14,32,12.20
2010,04,11,14,33,12.20
2010,04,11,14,34,12.20
2010,04,11,14,35,12.20
2010,04,11,14,36,12.30
2010,04,11,14,37,12.40
2010,04,11,14,38,12.50
2010,04,11,14,39,12.60
2010,04,11,14,40,12.60
2010,04,11,14,41,12.70
2010,04,11,14,42,12.80
2010,04,11,14,43,12.90
2010,04,11,14,44,12.90
2010,04,11,14,45,12.90
2010,04,11,14,46,12.90
2010,04,11,14,47,13.00
2010,04,11,14,48,13.00
2010,04,11,14,49,12.90
2010,04,11,14,50,12.80
2010,04,11,14,51,12.70
2010,04,11,14,52,12.60
2010,04,11,14,53,12.60
2010,04,11,14,54,12.50
2010,04,11,14,55,12.40
2010,04,11,14,56,12.30
2010,04,11,14,57,12.30
2010,04,11,14,58,12.30
2010,04,11,14,59,12.30
2010,04,11,15,00,12.40
2010,04,11,15,01,12.40
2010,04,11,15,02,12.50
2010,04,11,15,03,12.50
2010,04,11,15,04,12.60
2010,04,11,15,05,12.50
2010,04,11,15,06,12.40
2010,04,11,15,07,12.40
2010,04,11,15,08,12.40
2010,04,11,15,09,12.40
2010,04,11,15,10,12.40
2010,04,11,15,11,12.40
2010,04,11,15,12,12.30
2010,04,11,15,13,12.30
2010,04,11,15,14,12.20
2010,04,11,15,15,12.20
2010,04,11,15,16,12.20
2010,04,11,15,17,12.20
2010,04,11,15,18,12.30
2010,04,11,15,19,12.30
2010,04,11,15,20,12.30
2010,04,11,15,21,12.30
2010,04,11,15,22,12.30
2010,04,11,15,23,12.40
2010,04,11,15,24,12.40
2010,04,11,15,25,12.50
2010,04,11,15,26,12.60
2010,04,11,15,27,12.70
2010,04,11,15,28,12.70
2010,04,11,15,29,12.70
2010,04,11,15,30,12.60
2010,04,11,15,31,12.60
2010,04,11,15,32,12.70
2010,04,11,15,33,12.70
2010,04,11,15,34,12.70
2010,04,11,15,35,12.70
2010,04,11,15,36,12.80
2010,04,11,15,37,12.90
2010,04,11,15,38,13.00
2010,04,11,15,39,13.10
2010,04,11,15,40,13.10
2010,04,11,15,41,13.20
2010,04,11,15,42,13.20
2010,04,11,15,43,13.20
2010,04,11,15,44,13.10
2010,04,11,15,45,13.00
2010,04,11,15,46,13.00
2010,04,11,15,47,13.00
2010,04,11,15,48,13.10
2010,04,11,15,49,13.10
2010,04,11,15,50,13.10
2010,04,11,15,51,13.10
2010,04,11,15,52,13.10
2010,04,11,15,53,13.00
2010,04,11,15,54,13.10
2010,04,11,15,55,13.20
2010,04,11,15,56,13.30
2010,04,11,15,57,13.40
2010,04,11,15,58,13.40
2010,04,11,15,59,13.30
2010,04,11,16,00,13.20
2010,04,11,16,01,13.20
2010,04,11,16,02,13.20
2010,04,11,16,03,13.10
2010,04,11,16,04,13.00
2010,04,11,16,05,12.90
2010,04,11,16,06,12.90
2010,04,11,16,07,12.90
2010,04,11,16,08,12.90
2010,04,11,16,09,13.00
2010,04,11,16,10,13.00
2010,04,11,16,11,13.00
2010,04,11,16,12,12.90
2010,04,11,16,13,12.90
2010,04,11,16,14,12.90
2010,04,11,16,15,13.00
2010,04,11,16,16,13.10
2010,04,11,16,17,13.10
2010,04,11,16,18,13.10
2010,04,11,16,19,13.10
2010,04,11,16,20,13.10
2010,04,11,16,21,13.10
2010,04,11,16,22,13.00
2010,04,11,16,23,12.90
2010,04,11,16,24,12.80
2010,04,11,16,25,12.70
2010,04,11,16,26,12.70
2010,04,11,16,27,12.80
2010,04,11,16,28,12.90
2010,04,11,16,29,12.90
2010,04,11,16,30,13.00
2010,04,11,16,31,13.00
2010,04,11,16,32,13.00
2010,04,11,16,33,13.00
2010,04,11,16,34,13.00
2010,04,11,16,35,12.90
2010,04,11,16,36,12.90
2010,04,11,16,37,12.90
2010,04,11,16,38,12.90
2010,04,11,16,39,13.00
2010,04,11,16,40,13.00
2010,04,11,16,41,13.10
2010,04,11,16,42,13.20
2010,04,11,16,43,13.20
2010,04,11,16,44,13.30
2010,04,11,16,45,13.40
2010,04,11,16,46,13.40
2010,04,11,16,47,13.40
2010,04,11,16,48,13.40
2010,04,11,16,49,13.30
2010,04,11,16,50,13.20
2010,04,11,16,51,13.20
2010,04,11,16,52,13.20
2010,04,11,16,53,13.10
2010,04,11,16,54,13.10
2010,04,11,16,55,13.20
2010,04,11,16,56,13.20
2010,04,11,16,57,13.10
2010,04,11,16,58,13.10
2010,04,11,16,59,13.10
2010,04,11,17,00,13.10
2010,04,11,17,01,13.10
2010,04,11,17,02,13.20
2010,04,11,17,03,13.20
2010,04,11,17,04,13.30
2010,04,11,17,05,13.30
2010,04,11,17,06,13.20
2010,04,11,17,07,13.20
2010,04,11,17,08,13.20
2010,04,11,17,09,13.20
2010,04,11,17,10,13.20
2010,04,11,17,11,13.20
2010,04,11,17,12,13.20
2010,04,11,17,13,13.20
2010,04,11,17,14,13.30
2010,04,11,17,15,13.50
2010,04,11,17,16,13.60
2010,04,11,17,17,13.80
2010,04,11,17,18,13.90
2010,04,11,17,19,14.00
2010,04,11,17,20,14.10
2010,04,11,17,21,14.00
2010,04,11,17,22,13.90
2010,04,11,17,23,13.80
2010,04,11,17,24,13.70
2010,04,11,17,25,13.60
2010,04,11,17,26,13.50
2010,04,11,17,27,13.50
2010,04,11,17,28,13.40
2010,04,11,17,29,13.40
2010,04,11,17,30,13.50
2010,04,11,17,31,13.60
2010,04,11,17,32,13.60
2010,04,11,17,33,13.70
2010,04,11,17,34,13.80
2010,04,11,17,35,13.80
2010,04,11,17,36,13.80
2010,04,11,17,37,13.80
2010,04,11,17,38,13.80
2010,04,11,17,39,13.90
2010,04,11,17,40,13.80
2010,04,11,17,41,13.80
2010,04,11,17,42,13.80
2010,04,11,17,43,13.70
2010,04,11,17,44,13.60
2010,04,11,17,45,13.50